Location: Unspecified
(0.0000°N, 0.0000°E)
Time: 07:44:08
(UTC+00:00)

BlueWalker 3 - Pass Details

Date: 11 November 2025
Orbit: 456 x 463 km, 53.2° (Epoch: 13 November)

Event Time Altitude Azimuth Distance (km) Brightness Sun altitude
Rises 18:47:23 0° 218° (SW) 2,478 6.4 -15.1°
Reaches altitude 10° 18:49:32 10° 220° (SW) 1,603 5.4 -15.6°
Maximum altitude 18:53:07 68° 304° (NW) 498 2.0 -16.4°
Enters shadow 18:54:58 26° 21° (NNE) 931 2.9 -16.9°
